Location: Couloutre
(47.4081°N, 3.2259°E)
Time: 05:54:37
(UTC+00:00)

Cosmos 1725 Rocket - Pass Details

Date: 27 February 2020
Orbit: 963 x 989 km, 82.9° (Epoch: 30 March)

Event Time Altitude Azimuth Distance (km) Brightness Sun altitude
Rises 17:51:23 0° 194° (SSW) 3,636 7.3 -4.7°
Reaches altitude 10° 17:53:53 10° 196° (SSW) 2,695 6.6 -5.1°
Maximum altitude 18:00:02 71° 280° (W) 1,022 4.4 -6.2°
Drops below altitude 10° 18:06:16 10° 5° (N) 2,727 6.3 -7.2°
Sets 18:08:49 0° 8° (N) 3,682 6.9 -7.6°
